Terug naar catalogus

STARLINK-30615

ActiefCommunicatieVLEO
NORAD 58092·PAYLOAD·🇺🇸 United States

Gelanceerd Oct 18, 2023 vanaf Cape Canaveral Space Force Station

Loading…

Volgende Passages (komende 24 uur)

TLE

VersSource: CelesTrak SupGP

Epoch: Sep 15, 2026, 02:55 UTC

1 58092C 23160T   26258.12201389 -.00025674  00000+0 -92976-3 0  2584
2 58092  43.0010  88.5722 0001772 266.5950   2.3430 15.27596561    16

Volg STARLINK-30615 in realtime met AllMySat

Download on the App Store